New Iberia, LA

7:54 AM CDT on May 27, 2018 (GMT -0500)
Acadiana Regional

Weather History for KARA - August, 2013

Change the Weather History Date:

Friday, August 30, 2013

  Actual Average Record
Temperature  
Mean Temperature 84 °F 82 °F  
Max Temperature 95 °F 91 °F 100 °F (2011)
Min Temperature 73 °F 73 °F 63 °F (1992)
Degree Days  
Heating Degree Days 0 0  
Month to date heating degree days 0 0  
Since 1 June heating degree days 0 0  
Since 1 July heating degree days 0 0  
Cooling Degree Days 19 17  
Month to date cooling degree days 589 535  
Year to date cooling degree days 2300 2123  
Since 1 June cooling degree days 1719 1553  
Growing Degree Days 33 (Base 50)    
Moisture  
Dew Point 70 °F    
Average Humidity 64    
Maximum Humidity 87    
Minimum Humidity 41    
Precipitation  
Precipitation 0.00 in 0.19 in 2.13 in (2014)
Month to date precipitation 3.99 4.90  
Year to date precipitation 53.07 40.67  
Sea Level Pressure  
Sea Level Pressure 30.01 in    
Wind  
Wind Speed 1 mph (ENE)    
Max Wind Speed 7 mph    
Max Gust Speed 9 mph    
Visibility 6 miles    
Events      
T = Trace of Precipitation, MM = Missing Value Source: NWS Daily Summary

Daily Weather History Graph

Daily Weather History Graph

Search for Another Location

Airport or City:

Astronomy

Aug. 30, 2013 Rise Set
Actual Time 6:43 AM CDT 7:32 PM CDT
Civil Twilight 6:19 AM CDT 7:56 PM CDT
Nautical Twilight 5:50 AM CDT 8:25 PM CDT
Astronomical Twilight 5:20 AM CDT 8:54 PM CDT
Moon 1:35 AM CDT (8/30) 3:35 PM CDT (8/30)
Length of Visible Light 13h 37m
Length of Day
12h 48m
Waning Crescent, 29% of the Moon is Illuminated
Aug 30
Waning Crescent
Sep 5
New
Sep 12
First Quarter
Sep 19
Full
Sep 26
Last Quarter

Hourly Weather History & Observations

Time (CDT) Temp. Heat Index Dew Point Humidity Pressure Visibility Wind Dir Wind Speed Gust Speed Precip Events Conditions
12:53 AM 77.0 °F - 71.1 °F 82% 30.02 in 7.0 mi Calm Calm - 0.00 in   Clear
1:53 AM 75.9 °F - 71.1 °F 85% 30.02 in 6.0 mi Calm Calm - N/A   Haze
2:53 AM 75.9 °F - 71.1 °F 85% 30.02 in 5.0 mi Calm Calm - N/A   Haze
3:53 AM 75.0 °F - 71.1 °F 87% 30.01 in 4.0 mi Calm Calm - N/A   Clear
4:08 AM 75.2 °F - 71.6 °F 89% 30.01 in 2.5 mi Calm Calm - N/A   Clear
4:16 AM 75.2 °F - 71.6 °F 89% 30.01 in 5.0 mi Calm Calm - N/A   Haze
4:53 AM 75.0 °F - 70.0 °F 84% 30.01 in 5.0 mi Calm Calm - N/A   Haze
5:22 AM 73.4 °F - 69.8 °F 88% 30.01 in 2.5 mi Calm Calm - N/A   Clear
5:53 AM 73.0 °F - 69.1 °F 87% 30.02 in 2.5 mi Calm Calm - N/A   Clear
6:03 AM 73.4 °F - 69.8 °F 88% 30.02 in 4.0 mi Calm Calm - N/A   Clear
6:12 AM 73.4 °F - 69.8 °F 88% 30.02 in 1.8 mi Calm Calm - N/A   Clear
6:38 AM 73.4 °F - 69.8 °F 88% 30.03 in 3.0 mi Calm Calm - N/A   Clear
6:48 AM 73.4 °F - 69.8 °F 88% 30.04 in 1.8 mi Calm Calm - N/A   Clear
6:49 AM 73.9 °F - 70.0 °F 87% 30.04 in 1.8 mi Calm Calm - N/A   Clear
7:02 AM 73.4 °F - 69.8 °F 88% 30.04 in 2.5 mi Calm Calm - N/A   Clear
7:12 AM 73.4 °F - 69.8 °F 88% 30.04 in 1.5 mi Calm Calm - N/A   Clear
7:25 AM 75.2 °F - 71.6 °F 89% 30.04 in 2.0 mi Calm Calm - N/A   Clear
7:35 AM 75.2 °F - 71.6 °F 89% 30.04 in 4.0 mi Calm Calm - N/A   Clear
7:53 AM 78.1 °F - 72.0 °F 81% 30.05 in 5.0 mi Calm Calm - N/A   Haze
8:53 AM 82.9 °F 88.8 °F 73.0 °F 72% 30.05 in 7.0 mi Calm Calm - N/A   Clear
9:53 AM 86.0 °F 92.2 °F 72.0 °F 63% 30.06 in 10.0 mi North 4.6 mph - N/A   Clear
10:53 AM 88.0 °F 92.9 °F 70.0 °F 55% 30.06 in 10.0 mi Calm Calm - N/A   Scattered Clouds
11:53 AM 90.0 °F 93.6 °F 68.0 °F 48% 30.04 in 10.0 mi Calm Calm - N/A   Partly Cloudy
12:53 PM 91.9 °F 94.5 °F 66.0 °F 42% 30.03 in 10.0 mi Calm Calm - N/A   Clear
1:53 PM 91.9 °F 95.4 °F 66.9 °F 44% 30.01 in 10.0 mi Variable 3.5 mph - N/A   Clear
2:53 PM 91.9 °F 94.5 °F 66.0 °F 42% 29.98 in 10.0 mi Calm Calm - N/A   Mostly Cloudy
3:53 PM 91.9 °F 94.1 °F 64.9 °F 41% 29.96 in 10.0 mi Calm Calm - N/A   Clear
4:53 PM 93.9 °F 97.0 °F 66.0 °F 40% 29.95 in 10.0 mi Variable 3.5 mph - N/A   Clear
5:53 PM 93.9 °F 97.0 °F 66.0 °F 40% 29.94 in 10.0 mi NNE 5.8 mph - N/A   Clear
6:53 PM 89.1 °F 93.7 °F 69.1 °F 52% 29.94 in 10.0 mi East 3.5 mph - N/A   Clear
7:53 PM 82.9 °F 87.5 °F 71.1 °F 67% 29.95 in 10.0 mi Calm Calm - N/A   Clear
8:53 PM 81.0 °F 85.2 °F 72.0 °F 74% 29.96 in 10.0 mi SE 3.5 mph - N/A   Clear
9:53 PM 79.0 °F - 72.0 °F 79% 29.96 in 10.0 mi Calm Calm - N/A   Clear
10:53 PM 79.0 °F - 72.0 °F 79% 29.95 in 10.0 mi Calm Calm - N/A   Clear
11:53 PM 77.0 °F - 72.0 °F 84% 29.95 in 7.0 mi Calm Calm - N/A   Clear